Find Starlink 1267

NORAD ID: 45384 Int'l Des: 2020-019 Owner: SPXS Country: US Constellation: starlink operational
LEOCIRCULAR

現在のビュー

3D地球を読み込み中...

About Starlink 1267

Starlink 1267 (NORAD 45384) is a starlink constellation satellite (v1.0) launched Mar 18, 2020 by SPXS of US. It operates in LEO, CIRCULAR orbit with a mass of 260.00 kg.

次回通過

Passes for default location (London). Set your location on the main map for personalized predictions.

高度履歴

Loading altitude history...

軌道要素

1 45384U 20019AA 26265.09353664 .00110769 00000-0 44117-3 0 9997
2 45384 53.0361 239.0049 0005557 59.8492 300.3081 15.85816793361097
Epoch: Sep 22, 2026 • Age: 27 hours

現在のステータス

高度 313.0 km
遠地点 / 近地点 N/A
速度 7.73 km/s
衛星直下点 38.88°N, 177.03°W
打ち上げ日 Mar 18, 2020
運用期間 6.5 years
タイプ internet

技術仕様

分類 Payload
質量 260.00 kg
乾燥質量 248.00 kg
長さ 0.20 m
スパン 9.00 m
形状 ? Box + pan
製造者 SPXS
バスタイプ Starlink
フェーズステータス In Orbit
所有者/国 SPXS/US

Most Searched